Location: Champs
(48.8539°N, 2.6040°E)
Time: 08:49:58
(UTC+00:00)

USA 308 - Pass Details

Date: 01 June 2022
Orbit: 549 x 558 km, 54.0° (Epoch: 14 June)

Event Time Altitude Azimuth Distance (km) Brightness Sun altitude
Exits shadow 20:56:54 11° 119° (ESE) 1,758 4.8 -9.5°
Drops below altitude 10° 20:57:44 10° 108° (ESE) 1,834 5.0 -9.5°
Sets 21:01:27 0° 74° (ENE) 2,738 6.1 -9.9°
